Dunkirk, NY

12:44 PM EST on January 21, 2018 (GMT -0500)
Chautauqua County-Dunkirk

Weather History for KDKK - September, 2014

Change the Weather History Date:

Thursday, September 11, 2014

  Actual Average Record
Temperature  
Mean Temperature 66 °F -  
Max Temperature 77 °F 74 °F 90 °F (1955)
Min Temperature 57 °F 56 °F 38 °F (1967)
Cooling Degree Days 1    
Growing Degree Days 16 (Base 50)    
Moisture  
Dew Point 59 °F    
Average Humidity 82    
Maximum Humidity 96    
Minimum Humidity 69    
Precipitation  
Precipitation 0.38 in - - ()
Sea Level Pressure  
Sea Level Pressure 29.84 in    
Wind  
Wind Speed 19 mph (West)    
Max Wind Speed 24 mph    
Max Gust Speed 38 mph    
Visibility 9 miles    
Events Rain    
Averages and records for this station are not official NWS values.
T = Trace of Precipitation, MM = Missing Value Source: NWS Daily Summary

Daily Weather History Graph

Daily Weather History Graph

Search for Another Location

Airport or City:

Trip Planner

Search our weather history database for the weather conditions in past years. The results will help you decide how hot, cold, wet, or windy it might be!

Date:

Astronomy

Sep. 11, 2014 Rise Set
Actual Time 6:52 AM EDT 7:33 PM EDT
Civil Twilight 6:24 AM EDT 8:02 PM EDT
Nautical Twilight 5:50 AM EDT 8:35 PM EDT
Astronomical Twilight 5:15 AM EDT 9:10 PM EDT
Moon 9:06 PM EDT (9/11) 9:51 AM EDT (9/11)
Length of Visible Light 13h 37m
Length of Day
12h 41m
Waning Gibbous, 91% of the Moon is Illuminated
Sep 11
Waning Gibbous
Sep 15
Last Quarter
Sep 24
New
Oct 1
First Quarter
Oct 8
Full

Hourly Weather History & Observations

Time (EDT) Temp. Dew Point Humidity Pressure Visibility Wind Dir Wind Speed Gust Speed Precip Events Conditions
12:53 AM 72.0 °F 66.9 °F 84% 29.65 in 10.0 mi South 21.9 mph 38.0 mph 0.05 in Rain Light Rain
1:53 AM 72.0 °F 68.0 °F 87% 29.65 in 10.0 mi SSW 20.7 mph 36.8 mph 0.09 in   Overcast
2:53 AM 73.9 °F 68.0 °F 82% 29.63 in 10.0 mi SSW 24.2 mph 29.9 mph 0.00 in   Overcast
3:53 AM 75.9 °F 68.0 °F 76% 29.62 in 10.0 mi SSW 23.0 mph 29.9 mph N/A   Overcast
4:53 AM 75.0 °F 68.0 °F 79% 29.62 in 9.0 mi SW 18.4 mph 29.9 mph 0.00 in Rain Light Rain
5:53 AM 73.9 °F 69.1 °F 85% 29.62 in 9.0 mi SSW 20.7 mph 27.6 mph 0.00 in Rain Light Rain
6:10 AM 72.0 °F 69.1 °F 91% 29.66 in 2.0 mi WSW 17.3 mph 32.2 mph 0.08 in Rain Heavy Rain
6:31 AM 71.1 °F 70.0 °F 96% 29.66 in 2.5 mi SW 18.4 mph 26.5 mph 0.21 in Rain Rain
6:39 AM 71.1 °F 70.0 °F 96% 29.66 in 6.0 mi WSW 13.8 mph 26.5 mph 0.22 in Rain Light Rain
6:53 AM 71.1 °F 69.1 °F 93% 29.67 in 7.0 mi WSW 19.6 mph 35.7 mph 0.23 in Rain Light Rain
7:20 AM 70.0 °F 66.0 °F 87% 29.71 in 10.0 mi WSW 19.6 mph 31.1 mph 0.01 in   Overcast
7:36 AM 69.1 °F 64.9 °F 87% 29.73 in 10.0 mi WSW 16.1 mph 32.2 mph 0.01 in   Overcast
7:45 AM 69.1 °F 64.9 °F 87% 29.74 in 10.0 mi WSW 16.1 mph 27.6 mph 0.01 in   Overcast
7:53 AM 66.9 °F 64.0 °F 90% 29.74 in 10.0 mi West 23.0 mph 34.5 mph 0.01 in   Overcast
8:09 AM 66.9 °F 62.1 °F 84% 29.76 in 10.0 mi West 19.6 mph 32.2 mph N/A   Overcast
8:22 AM 66.0 °F 62.1 °F 87% 29.78 in 10.0 mi West 20.7 mph 29.9 mph N/A   Overcast
8:34 AM 64.0 °F 61.0 °F 90% 29.79 in 10.0 mi West 21.9 mph 34.5 mph N/A   Overcast
8:53 AM 63.0 °F 59.0 °F 87% 29.81 in 10.0 mi West 19.6 mph 32.2 mph N/A   Overcast
9:53 AM 61.0 °F 57.0 °F 87% 29.86 in 10.0 mi West 18.4 mph 28.8 mph N/A   Overcast
10:40 AM 62.1 °F 55.9 °F 80% 29.89 in 10.0 mi West 16.1 mph 29.9 mph N/A   Overcast
10:53 AM 60.1 °F 55.9 °F 86% 29.90 in 8.0 mi WSW 15.0 mph 26.5 mph 0.00 in Rain Light Rain
11:17 AM 59.0 °F 57.0 °F 93% 29.92 in 4.0 mi West 13.8 mph 28.8 mph 0.00 in Rain Light Rain
11:24 AM 60.1 °F 55.9 °F 86% 29.92 in 8.0 mi West 18.4 mph 25.3 mph 0.00 in   Overcast
11:53 AM 61.0 °F 54.0 °F 78% 29.92 in 10.0 mi West 16.1 mph 27.6 mph 0.00 in   Overcast
12:53 PM 61.0 °F 53.1 °F 75% 29.94 in 10.0 mi West 16.1 mph 26.5 mph N/A   Overcast
1:53 PM 61.0 °F 53.1 °F 75% 29.96 in 10.0 mi West 13.8 mph 20.7 mph N/A   Overcast
2:53 PM 61.0 °F 53.1 °F 75% 29.97 in 10.0 mi West 15.0 mph 24.2 mph N/A   Overcast
3:53 PM 62.1 °F 53.1 °F 72% 29.99 in 10.0 mi West 12.7 mph 25.3 mph N/A   Overcast
4:53 PM 62.1 °F 52.0 °F 70% 30.01 in 10.0 mi West 17.3 mph 23.0 mph N/A   Overcast
5:53 PM 60.1 °F 52.0 °F 75% 30.04 in 10.0 mi WNW 16.1 mph 25.3 mph N/A   Overcast
6:53 PM 59.0 °F 51.1 °F 75% 30.06 in 10.0 mi NW 11.5 mph - N/A   Overcast
7:53 PM 59.0 °F 50.0 °F 72% 30.07 in 10.0 mi West 11.5 mph - N/A   Overcast
8:53 PM 59.0 °F 50.0 °F 72% 30.09 in 10.0 mi WNW 12.7 mph - N/A   Overcast
9:53 PM 59.0 °F 48.9 °F 69% 30.11 in 10.0 mi NW 10.4 mph - N/A   Overcast
10:53 PM 57.9 °F 48.0 °F 70% 30.13 in 10.0 mi West 10.4 mph - N/A   Overcast
11:53 PM 57.9 °F 50.0 °F 75% 30.14 in 10.0 mi NNW 9.2 mph - N/A   Overcast